Regional Weather Roundup
Issued by NWS

Home | Current Version | Previous Version | Text Only | Print | Product List | Glossary Off
Versions: 1 2 3 4 5 6 7 8 9 10 11 12 13 14 15 16 17 18 19 20 21 22 23 24 25 26 27 28 29 30 31 32 33 34 35 36 37 38 39 40 41 42 43 44 45 46 47 48 49 50

000
ASUS43 KLMK 252110
RWRKY
KENTUCKY REGIONAL WEATHER ROUNDUP
NATIONAL WEATHER SERVICE LOUISVILLE KY
400 PM EST SAT FEB 25 2017

NOTE "FAIR" INDICATES FEW OR NO CLOUDS BELOW 12,000 FEET
WITH NO SIGNIFICANT WEATHER AND/OR OBSTRUCTIONS TO VISIBILITY.

KYZ001>023-026-027-061>063-070>075-252200-
WESTERN AND SOUTH CENTRAL KENTUCKY

CITY           SKY/WX    TMP DP  RH WIND       PRES   REMARKS
PADUCAH        SUNNY     44  16  32 NW14      30.08R
HENDERSON      PTSUNNY   43  19  39 W14       30.06R
OWENSBORO      MOSUNNY   40  18  41 W20       30.06R WCI  30
HOPKINSVILLE   SUNNY     43  19  38 NW7G18    30.05R
BOWLING GREEN  SUNNY     42  18  37 W12       30.04R
GLASGOW        SUNNY     40  20  44 W10G17    30.03R WCI  33
$$

KYZ024-025-028>034-038-045-046-053-252200-
NORTH CENTRAL KENTUCKY

CITY           SKY/WX    TMP DP  RH WIND       PRES   REMARKS
LOUISVILLE/SDF MOSUNNY   40  18  41 W15       30.01R WCI  32
LOUISVILLE/LOU CLOUDY    38  18  44 W13       30.01R WCI  30
FORT KNOX      MOSUNNY   37  19  48 W12       29.99R WCI  29
$$

KYZ035>037-039>044-047>052-055>060-089>105-252200-
NORTHEAST KENTUCKY

CITY           SKY/WX    TMP DP  RH WIND       PRES   REMARKS
LEXINGTON      CLOUDY    38  20  48 W13       29.97R WCI  30
COVINGTON      CLOUDY    33  18  53 W20       29.95R WCI  21
FRANKFORT      CLOUDY    37  17  44 W13G23    29.98R WCI  29
$$

KYZ054-064>069-076>088-106>120-252200-
SOUTHEAST KENTUCKY

CITY           SKY/WX    TMP DP  RH WIND       PRES   REMARKS
JACKSON        PTSUNNY   42  23  46 W8G23     29.91R
LONDON         MOSUNNY   41  19  41 W16G26    29.95R
SOMERSET       MOSUNNY   41  21  45 W12G18    30.00R
MIDDLESBORO    PTSUNNY   47  26  43 NW10G18   29.93R
MONTICELLO     PTCLDY    43  24  47 NW13      30.00R
$$




USA.gov is the U.S. government's official web portal to all federal, state and local government web resources and services.